Regional Weather Roundup
Issued by NWS

Home | Current Version | Previous Version | Graphics & Text | Print | Product List | Glossary On
Versions: 1 2 3 4 5 6 7 8 9 10 11 12 13 14 15 16 17 18 19 20 21 22 23 24 25 26 27 28 29 30 31 32 33 34 35 36 37 38 39 40 41 42 43 44 45 46 47 48 49 50
000
ASUS43 KFSD 030510
RWRSD

WEATHER ROUNDUP FOR SOUTH DAKOTA
NATIONAL WEATHER SERVICE SIOUX FALLS SD
1200 AM CDT FRI JUL 03 2015

NOTE: "FAIR" INDICATES FEW OR NO CLOUDS BELOW 12,000 FEET WITH NO
SIGNIFICANT WEATHER AND/OR OBSTRUCTIONS TO VISIBILITY.


SDZ001>005-009-010-012>017-030600-
NORTHWEST AND NORTH CENTRAL SOUTH DAKOTA

CITY           SKY/WX    TMP DP  RH WIND       PRES   REMARKS
BUFFALO          N/A     65  58  78 W6        30.02R
FAITH            N/A     68  58  70 CALM      30.04F
MOBRIDGE       CLEAR     66  65  96 CALM      29.97S
$$

SDZ012>016-024>037-041>051-057-063-072>074-030600-
SOUTHWEST AND SOUTH CENTRAL SOUTH DAKOTA

CITY           SKY/WX    TMP DP  RH WIND       PRES   REMARKS
RAPID CTY ARPT MOCLDY    63  58  83 N6        30.10S
PIERRE         CLEAR     65  63  93 SE3       29.99R
CUSTER         CLEAR     56  51  84 NW5       30.22F
ELLSWORTH AFB  MOCLDY    64  59  83 W6        30.09F
PHILIP         CLEAR     65  61  87 CALM      30.02S
PINE RIDGE     CLEAR     63  58  83 CALM      30.09S
SPEARFISH      FAIR      59  57  94 S5        30.15S
WINNER         FAIR      66  60  81 S5        30.01S
$$

SDZ004>011-016>023-039-040-030600-
NORTHEAST SOUTH DAKOTA

CITY           SKY/WX    TMP DP  RH WIND       PRES   REMARKS
ABERDEEN       CLEAR     63  60  90 S6        29.98S
WATERTOWN      CLEAR     58  53  84 W6        30.00S
BROOKINGS      CLEAR     61  54  77 S5        30.03S
SISSETON         N/A     59  56  89 SW6       29.96S
$$

SDZ017-020-022-023-036>040-048>070-030600-
SOUTHEAST SOUTH DAKOTA

CITY           SKY/WX    TMP DP  RH WIND       PRES   REMARKS
SIOUX FALLS    CLEAR     60  58  92 CALM      30.01S
HURON          MOCLDY    63  59  87 S5        29.99S
CHAMBERLAIN    CLEAR     62  61  99 SE3       30.00S FOG
MITCHELL       CLEAR     61  58  90 SE5       30.00S
YANKTON        CLEAR     61  57  88 NE3       29.99S
$$

ABBREVIATIONS USED IN REMARKS
   TC - TEMPERATURE IN CELSIUS
  WCI - WIND CHILL INDEX
   HX - HEAT INDEX
  VSB - VISIBILITY




USA.gov is the U.S. government's official web portal to all federal, state and local government web resources and services.